Torna al catalogo

METEOR 2-8

AttivoMeteoPO
NORAD 13113·PAYLOAD·🇷🇺 Russia

Lanciato Mar 25, 1982 da Plesetsk Cosmodrome

Loading…

Prossimi Passaggi (prossime 24 ore)

TLE

AggiornatoSource: Space-Track

Epoca: Sep 14, 2026, 08:19 UTC

1 13113U 82025A   26257.34691469  .00000021  00000-0  57213-5 0  9996
2 13113  82.5412  27.0888 0017606 350.9630  38.1521 13.85604000247990

Traccia METEOR 2-8 in tempo reale con AllMySat

Download on the App Store